| time (UTC) | temp C | wind direction | speed KPH | gust KPH | rain 1hr cm | rain 24hr cm | rain mn cm | humidity % | barometer mb |
| 20260508114554 | 3 | 0 | 0.0 | 3.2 | 0.00 | 0.00 | 0.00 | 92 | 1016.8 |
| 20260508113042 | 3 | 0 | 0.0 | 0.0 | 0.00 | 0.00 | 0.00 | 91 | 1016.7 |
| 20260508111544 | 4 | 1 | 3.2 | 6.4 | 0.00 | 0.00 | 0.00 | 92 | 1016.7 |
| 20260508110044 | 4 | 1 | 6.4 | 8.0 | 0.00 | 0.00 | 0.00 | 92 | 1016.6 |
| 20260508104545 | 3 | 1 | 3.2 | 4.8 | 0.00 | 0.00 | 0.00 | 91 | 1016.8 |
| 20260508103058 | 3 | 1 | 3.2 | 9.7 | 0.00 | 0.00 | 0.00 | 91 | 1017.0 |
| 20260508101551 | 3 | 1 | 1.6 | 8.0 | 0.00 | 0.00 | 0.00 | 90 | 1016.2 |
| 20260508100041 | 3 | 1 | 3.2 | 6.4 | 0.00 | 0.00 | 0.00 | 90 | 1015.7 |
| 20260508094536 | 3 | 1 | 3.2 | 8.0 | 0.00 | 0.00 | 0.00 | 89 | 1015.7 |
| 20260508093042 | 4 | 1 | 3.2 | 4.8 | 0.00 | 0.00 | 0.00 | 88 | 1016.1 |
| 20260508091544 | 5 | 0 | 0.0 | 3.2 | 0.00 | 0.00 | 0.00 | 88 | 1016.3 |
| 20260508090048 | 5 | 1 | 1.6 | 8.0 | 0.00 | 0.00 | 0.00 | 88 | 1016.3 |
| 20260508084542 | 6 | 1 | 8.0 | 11.3 | 0.00 | 0.00 | 0.00 | 88 | 1016.7 |
| 20260508083045 | 5 | 1 | 4.8 | 8.0 | 0.00 | 0.00 | 0.00 | 88 | 1016.8 |
| 20260508081542 | 6 | 1 | 3.2 | 6.4 | 0.00 | 0.00 | 0.00 | 87 | 1016.8 |
| 20260508080035 | 6 | 0 | 3.2 | 4.8 | 0.00 | 0.00 | 0.00 | 86 | 1016.9 |
| 20260508074544 | 6 | 1 | 1.6 | 6.4 | 0.00 | 0.00 | 0.00 | 85 | 1017.0 |
| 20260508073044 | 7 | 1 | 1.6 | 8.0 | 0.00 | 0.00 | 0.00 | 86 | 1016.7 |
| 20260508071538 | 7 | 1 | 6.4 | 11.3 | 0.00 | 0.00 | 0.00 | 85 | 1016.3 |
| 20260508070047 | 8 | 1 | 9.7 | 14.5 | 0.00 | 0.00 | 0.00 | 83 | 1016.1 |
| 20260508064544 | 8 | 1 | 8.0 | 16.1 | 0.00 | 0.00 | 0.00 | 82 | 1016.0 |
| 20260508063057 | 8 | 1 | 16.1 | 24.1 | 0.00 | 0.00 | 0.00 | 79 | 1018.1 |
| 20260508061541 | 9 | 1 | 11.3 | 16.1 | 0.00 | 0.00 | 0.00 | 76 | 1017.3 |
| 20260508060039 | 9 | 1 | 3.2 | 9.7 | 0.00 | 0.00 | 0.00 | 73 | 1016.2 |
| 20260508054537 | 10 | 1 | 8.0 | 16.1 | 0.00 | 0.00 | 0.00 | 72 | 1015.9 |
| 20260508053046 | 10 | 1 | 12.9 | 17.7 | 0.00 | 0.00 | 0.00 | 71 | 1015.8 |
| 20260508051542 | 10 | 1 | 4.8 | 9.7 | 0.00 | 0.00 | 0.00 | 73 | 1016.5 |
| 20260508050045 | 10 | 1 | 6.4 | 12.9 | 0.00 | 0.00 | 0.00 | 73 | 1017.1 |
| 20260508044542 | 9 | 1 | 8.0 | 14.5 | 0.00 | 0.00 | 0.00 | 72 | 1016.4 |
| 20260508043058 | 10 | 1 | 6.4 | 12.9 | 0.00 | 0.00 | 0.00 | 70 | 1016.0 |
| 20260508041549 | 10 | 1 | 11.3 | 19.3 | 0.00 | 0.00 | 0.00 | 69 | 1016.0 |
| 20260508040043 | 11 | 1 | 9.7 | 17.7 | 0.00 | 0.00 | 0.00 | 66 | 1016.2 |
| 20260508034545 | 11 | 1 | 12.9 | 20.9 | 0.00 | 0.00 | 0.00 | 63 | 1016.4 |
| 20260508033044 | 12 | 1 | 14.5 | 22.5 | 0.00 | 0.00 | 0.00 | 58 | 1016.7 |
| 20260508031544 | 12 | 1 | 1.6 | 9.7 | 0.00 | 0.00 | 0.00 | 62 | 1016.2 |
| 20260508030045 | 12 | 1 | 1.6 | 3.2 | 0.00 | 0.00 | 0.00 | 59 | 1015.7 |
| 20260508024544 | 12 | 1 | 3.2 | 6.4 | 0.00 | 0.00 | 0.00 | 56 | 1015.4 |
| 20260508023043 | 12 | 1 | 4.8 | 11.3 | 0.00 | 0.00 | 0.00 | 56 | 1015.6 |
| 20260508021546 | 13 | 1 | 6.4 | 19.3 | 0.00 | 0.00 | 0.00 | 54 | 1015.0 |
| 20260508020049 | 13 | 1 | 14.5 | 24.1 | 0.00 | 0.00 | 0.00 | 52 | 1014.7 |
| 20260508014544 | 14 | 1 | 20.9 | 30.6 | 0.00 | 0.00 | 0.00 | 48 | 1014.7 |
| 20260508013052 | 15 | 1 | 9.7 | 12.9 | 0.00 | 0.00 | 0.00 | 41 | 1014.6 |
| 20260508011543 | 16 | 1 | 4.8 | 8.0 | 0.00 | 0.00 | 0.00 | 40 | 1014.1 |
| 20260508010040 | 16 | 1 | 4.8 | 9.7 | 0.00 | 0.00 | 0.00 | 36 | 1014.0 |
| 20260508004545 | 17 | 1 | 8.0 | 12.9 | 0.00 | 0.00 | 0.00 | 35 | 1013.8 |
| 20260508003042 | 17 | 1 | 6.4 | 14.5 | 0.00 | 0.00 | 0.00 | 32 | 1013.8 |
| 20260508001606 | 17 | 1 | 9.7 | 17.7 | 0.00 | 0.00 | 0.00 | 31 | 1013.8 |
| 20260508000049 | 18 | 1 | 12.9 | 24.1 | 0.00 | 0.00 | 0.00 | 29 | 1013.9 |
| 20260507234553 | 18 | 1 | 19.3 | 27.4 | 0.00 | 0.00 | 0.00 | 27 | 1013.6 |
| 20260507233043 | 18 | 1 | 24.1 | 37.0 | 0.00 | 0.00 | 0.00 | 28 | 1013.6 |
| 20260507231544 | 20 | 1 | 22.5 | 37.0 | 0.00 | 0.00 | 0.00 | 27 | 1013.8 |
| 20260507230049 | 19 | 360 | 20.9 | 33.8 | 0.00 | 0.00 | 0.00 | 27 | 1013.8 |
| 20260507224544 | 19 | 1 | 22.5 | 35.4 | 0.00 | 0.00 | 0.00 | 26 | 1013.8 |
| 20260507223041 | 20 | 1 | 22.5 | 38.6 | 0.00 | 0.00 | 0.00 | 29 | 1013.8 |
| 20260507221541 | 19 | 1 | 24.1 | 38.6 | 0.00 | 0.00 | 0.00 | 27 | 1014.0 |
| 20260507220044 | 20 | 360 | 22.5 | 40.2 | 0.00 | 0.00 | 0.00 | 27 | 1013.9 |
| 20260507214544 | 19 | 1 | 29.0 | 40.2 | 0.00 | 0.00 | 0.00 | 28 | 1014.2 |
| 20260507213048 | 19 | 360 | 33.8 | 45.1 | 0.00 | 0.00 | 0.00 | 27 | 1014.4 |
| 20260507211547 | 19 | 360 | 24.1 | 40.2 | 0.00 | 0.00 | 0.00 | 28 | 1014.6 |
| 20260507210048 | 19 | 1 | 27.4 | 45.1 | 0.00 | 0.00 | 0.00 | 28 | 1014.8 |
| 20260507204548 | 18 | 1 | 30.6 | 46.7 | 0.00 | 0.00 | 0.00 | 30 | 1014.8 |
| 20260507203042 | 19 | 1 | 33.8 | 56.3 | 0.00 | 0.00 | 0.00 | 29 | 1014.9 |
| 20260507201551 | 18 | 1 | 30.6 | 46.7 | 0.00 | 0.00 | 0.00 | 29 | 1015.2 |
| 20260507200045 | 18 | 360 | 32.2 | 43.5 | 0.00 | 0.00 | 0.00 | 31 | 1015.2 |
| 20260507194544 | 18 | 360 | 25.7 | 40.2 | 0.00 | 0.00 | 0.00 | 32 | 1015.4 |
| 20260507193050 | 18 | 1 | 20.9 | 41.8 | 0.00 | 0.00 | 0.00 | 30 | 1015.6 |
| 20260507191550 | 17 | 360 | 29.0 | 41.8 | 0.00 | 0.00 | 0.00 | 33 | 1015.7 |
| 20260507190043 | 17 | 360 | 19.3 | 41.8 | 0.00 | 0.00 | 0.00 | 36 | 1016.0 |
| 20260507184541 | 18 | 1 | 25.7 | 38.6 | 0.00 | 0.03 | 0.00 | 33 | 1016.2 |
| 20260507183043 | 17 | 1 | 17.7 | 33.8 | 0.00 | 0.03 | 0.00 | 32 | 1016.3 |
| 20260507181543 | 17 | 360 | 17.7 | 30.6 | 0.00 | 0.03 | 0.00 | 36 | 1016.6 |
| 20260507180041 | 17 | 1 | 8.0 | 24.1 | 0.00 | 0.03 | 0.00 | 36 | 1016.5 |
| 20260507174547 | 16 | 1 | 14.5 | 29.0 | 0.00 | 0.15 | 0.00 | 36 | 1016.5 |
| 20260507173040 | 16 | 1 | 14.5 | 29.0 | 0.00 | 0.15 | 0.00 | 40 | 1016.9 |
| 20260507171542 | 15 | 1 | 20.9 | 29.0 | 0.00 | 0.15 | 0.00 | 38 | 1016.9 |
| 20260507170046 | 15 | 1 | 20.9 | 29.0 | 0.00 | 0.15 | 0.00 | 39 | 1017.0 |
| 20260507164543 | 15 | 1 | 16.1 | 29.0 | 0.00 | 0.33 | 0.00 | 40 | 1017.1 |
| 20260507163041 | 15 | 1 | 12.9 | 24.1 | 0.00 | 0.33 | 0.00 | 41 | 1017.0 |
| 20260507161541 | 15 | 1 | 11.3 | 25.7 | 0.00 | 0.33 | 0.00 | 44 | 1017.3 |
| 20260507160042 | 13 | 1 | 14.5 | 22.5 | 0.00 | 0.33 | 0.00 | 42 | 1017.5 |
| 20260507154548 | 12 | 1 | 12.9 | 24.1 | 0.00 | 0.51 | 0.00 | 42 | 1017.5 |
| 20260507153048 | 12 | 1 | 14.5 | 27.4 | 0.00 | 0.51 | 0.00 | 45 | 1017.6 |
| 20260507151543 | 11 | 1 | 14.5 | 27.4 | 0.00 | 0.51 | 0.00 | 46 | 1017.6 |
| 20260507150041 | 10 | 360 | 17.7 | 27.4 | 0.00 | 0.51 | 0.00 | 45 | 1017.6 |
| 20260507144546 | 10 | 1 | 16.1 | 27.4 | 0.00 | 0.51 | 0.00 | 47 | 1017.8 |
| 20260507143045 | 9 | 1 | 12.9 | 24.1 | 0.00 | 0.51 | 0.00 | 47 | 1017.8 |
| 20260507141541 | 8 | 1 | 17.7 | 29.0 | 0.00 | 0.51 | 0.00 | 49 | 1017.4 |
| 20260507140052 | 7 | 360 | 14.5 | 29.0 | 0.00 | 0.51 | 0.00 | 51 | 1017.5 |
| 20260507134551 | 7 | 1 | 17.7 | 27.4 | 0.00 | 0.51 | 0.00 | 50 | 1017.6 |
| 20260507133055 | 6 | 1 | 20.9 | 27.4 | 0.00 | 0.51 | 0.00 | 50 | 1017.5 |
| 20260507131555 | 5 | 1 | 16.1 | 33.8 | 0.00 | 0.51 | 0.00 | 51 | 1017.3 |
| 20260507130106 | 5 | 1 | 20.9 | 29.0 | 0.00 | 0.51 | 0.00 | 49 | 1017.1 |
| 20260507124548 | 5 | 1 | 19.3 | 27.4 | 0.00 | 0.51 | 0.00 | 48 | 1016.8 |
| 20260507123042 | 5 | 1 | 20.9 | 30.6 | 0.00 | 0.51 | 0.00 | 50 | 1016.6 |
| 20260507121556 | 5 | 1 | 20.9 | 33.8 | 0.00 | 0.51 | 0.00 | 48 | 1016.7 |
| 20260507120045 | 5 | 360 | 20.9 | 30.6 | 0.00 | 0.51 | 0.00 | 48 | 1016.6 |